GFSNW_500_temp_147.txt.gz
Temp
-26 -26 -26 -25 -24 -24 -24 -25 -24 -20 -23 -24 -23 -22 -20 -19 -19 -20 -20 -22 -20 -18 -19 -19 -19 -18 -18 -17 -17 -18 -17 -18 -16 -16 -17 -18 -18 -18 -19 -19 -18 -19 -19 -18
-27 -27 -26 -26 -26 -26 -25 -26 -25 -23 -24 -25 -23 -22 -22 -20 -20 -20 -21 -21 -21 -20 -20 -20 -19 -19 -19 -18 -19 -19 -19 -18 -18 -18 -18 -18 -20 -19 -19 -20 -20 -19 -20 -18
-28 -28 -27 -27 -27 -27 -27 -27 -26 -26 -25 -25 -25 -24 -23 -22 -21 -21 -22 -22 -22 -21 -20 -20 -20 -20 -20 -19 -19 -20 -19 -19 -19 -19 -19 -19 -20 -20 -19 -20 -21 -20 -19 -19
-30 -29 -28 -28 -28 -28 -28 -28 -27 -25 -25 -26 -25 -25 -23 -22 -22 -22 -22 -23 -22 -22 -21 -21 -21 -21 -20 -21 -20 -20 -20 -20 -20 -20 -20 -19 -19 -19 -19 -21 -21 -21 -19 -19
-31 -31 -31 -29 -28 -28 -29 -28 -27 -26 -26 -25 -25 -25 -25 -24 -23 -23 -22 -23 -22 -23 -23 -22 -22 -21 -21 -21 -21 -20 -20 -20 -21 -21 -21 -21 -21 -19 -20 -20 -21 -21 -21 -19
-31 -32 -32 -31 -29 -29 -29 -28 -27 -27 -26 -26 -26 -25 -25 -24 -23 -23 -23 -23 -23 -23 -23 -23 -22 -22 -22 -22 -21 -22 -21 -21 -21 -21 -22 -22 -22 -19 -20 -21 -21 -21 -22 -20
-31 -32 -32 -32 -31 -30 -29 -29 -28 -28 -27 -26 -26 -25 -25 -25 -25 -24 -24 -24 -24 -23 -24 -24 -23 -23 -23 -21 -22 -22 -21 -22 -22 -22 -22 -22 -19 -20 -21 -22 -20 -22 -22 -21
-31 -32 -33 -33 -32 -31 -30 -29 -28 -28 -27 -26 -26 -25 -25 -26 -26 -25 -25 -24 -23 -24 -23 -23 -23 -23 -23 -23 -22 -22 -22 -23 -22 -23 -22 -22 -21 -21 -21 -22 -21 -22 -22 -22
-31 -32 -33 -33 -33 -32 -31 -29 -28 -27 -27 -27 -26 -25 -26 -25 -26 -26 -25 -24 -24 -24 -22 -23 -23 -24 -23 -23 -22 -23 -23 -23 -23 -23 -23 -22 -21 -23 -22 -22 -21 -22 -22 -22
-31 -33 -33 -33 -33 -32 -31 -29 -28 -27 -27 -27 -26 -26 -25 -25 -26 -26 -26 -24 -24 -24 -23 -23 -23 -23 -24 -24 -23 -23 -23 -23 -23 -22 -23 -22 -22 -22 -22 -22 -22 -22 -22 -22
-32 -33 -33 -33 -33 -32 -32 -30 -29 -28 -27 -27 -26 -26 -25 -26 -26 -25 -26 -25 -25 -24 -24 -23 -24 -24 -23 -24 -24 -23 -24 -24 -23 -23 -23 -22 -23 -23 -23 -23 -23 -23 -23 -23
-32 -33 -33 -33 -33 -32 -32 -30 -29 -28 -28 -27 -27 -26 -26 -26 -26 -25 -25 -25 -25 -25 -25 -25 -25 -25 -24 -24 -24 -24 -24 -24 -24 -23 -23 -23 -23 -23 -23 -23 -23 -23 -23 -23
-33 -33 -33 -33 -33 -32 -32 -30 -29 -29 -27 -27 -27 -26 -26 -26 -26 -26 -26 -26 -25 -25 -25 -25 -25 -24 -24 -24 -24 -25 -25 -25 -24 -24 -23 -24 -24 -24 -23 -23 -23 -23 -23 -23
-33 -33 -33 -33 -33 -33 -32 -30 -29 -29 -28 -28 -27 -27 -27 -26 -26 -26 -26 -26 -26 -25 -25 -25 -25 -25 -25 -25 -24 -25 -25 -24 -24 -24 -24 -24 -24 -24 -24 -23 -23 -24 -23 -23
-33 -33 -33 -32 -32 -32 -32 -30 -29 -29 -29 -28 -27 -27 -27 -27 -27 -27 -27 -26 -26 -26 -26 -25 -26 -26 -26 -25 -26 -25 -25 -25 -25 -24 -24 -24 -24 -25 -24 -24 -23 -24 -24 -23
-32 -32 -31 -31 -31 -31 -31 -30 -30 -29 -29 -28 -28 -28 -27 -27 -27 -27 -27 -27 -27 -26 -26 -26 -26 -26 -26 -26 -26 -26 -25 -26 -26 -25 -26 -25 -25 -24 -25 -24 -24 -24 -24 -24
-32 -31 -30 -30 -30 -31 -30 -29 -28 -29 -28 -29 -28 -28 -28 -27 -27 -27 -27 -27 -27 -27 -26 -26 -26 -27 -27 -27 -26 -26 -26 -26 -26 -26 -26 -25 -25 -24 -24 -24 -24 -24 -24 -24
-31 -30 -30 -30 -30 -30 -30 -30 -29 -29 -29 -29 -28 -28 -28 -28 -28 -28 -28 -28 -28 -27 -27 -27 -27 -27 -27 -27 -26 -26 -26 -26 -26 -26 -26 -25 -25 -25 -24 -25 -24 -24 -24 -24
-31 -30 -30 -30 -29 -29 -29 -29 -29 -29 -29 -29 -28 -29 -29 -29 -28 -28 -28 -28 -28 -27 -27 -27 -27 -27 -26 -26 -26 -27 -27 -27 -26 -26 -26 -25 -25 -25 -25 -25 -25 -24 -24 -24
-31 -31 -30 -30 -30 -29 -29 -29 -29 -29 -29 -29 -29 -29 -29 -28 -28 -28 -28 -28 -28 -27 -27 -27 -27 -27 -27 -26 -26 -27 -26 -26 -26 -26 -26 -25 -25 -25 -25 -25 -24 -24 -24 -24
-31 -31 -31 -30 -30 -30 -30 -30 -30 -30 -29 -29 -29 -29 -29 -28 -29 -29 -28 -28 -27 -27 -27 -27 -27 -27 -27 -26 -26 -26 -26 -26 -26 -25 -25 -26 -25 -25 -25 -25 -25 -24 -24 -24
-31 -31 -31 -31 -31 -31 -31 -30 -30 -30 -30 -29 -29 -29 -29 -29 -29 -29 -28 -28 -28 -28 -28 -27 -26 -26 -26 -26 -26 -26 -26 -26 -26 -25 -25 -26 -26 -26 -25 -25 -25 -25 -24 -24
-31 -31 -31 -31 -31 -31 -30 -30 -30 -30 -29 -29 -29 -29 -29 -29 -29 -29 -28 -28 -28 -27 -27 -27 -27 -27 -26 -26 -26 -26 -26 -26 -26 -26 -26 -26 -26 -25 -25 -25 -25 -25 -25 -25
-31 -31 -31 -30 -30 -30 -30 -30 -29 -29 -30 -30 -30 -30 -30 -30 -29 -29 -28 -28 -28 -27 -26 -26 -27 -27 -26 -26 -26 -26 -26 -26 -26 -26 -26 -26 -26 -26 -25 -25 -25 -25 -25 -25
-30 -31 -30 -30 -30 -30 -30 -30 -30 -30 -30 -30 -30 -30 -30 -29 -29 -29 -28 -28 -28 -27 -27 -27 -27 -27 -27 -26 -26 -26 -26 -26 -25 -26 -26 -25 -25 -25 -25 -25 -25 -25 -25 -25
-30 -30 -30 -30 -30 -30 -30 -30 -30 -30 -30 -30 -30 -30 -29 -29 -29 -28 -28 -28 -27 -27 -27 -27 -27 -27 -27 -26 -26 -26 -26 -26 -26 -25 -26 -26 -26 -25 -25 -25 -25 -25 -25 -25
-29 -29 -29 -29 -29 -29 -29 -29 -29 -29 -29 -29 -29 -29 -29 -28 -28 -28 -27 -27 -27 -27 -27 -27 -27 -27 -27 -26 -26 -26 -26 -26 -26 -26 -26 -26 -26 -25 -25 -25 -25 -25 -25 -25

GFSNW_500_temp_153.txt.gz
Temp
-25 -25 -25 -25 -25 -25 -25 -24 -24 -23 -25 -25 -24 -23 -21 -21 -20 -21 -22 -23 -22 -20 -19 -20 -20 -20 -19 -19 -19 -18 -17 -17 -16 -16 -16 -16 -16 -15 -16 -16 -16 -16 -16 -15
-27 -27 -27 -27 -26 -26 -26 -25 -25 -25 -26 -26 -25 -24 -23 -23 -22 -22 -23 -23 -22 -22 -22 -21 -20 -20 -20 -20 -20 -19 -19 -18 -18 -17 -17 -17 -17 -16 -16 -16 -16 -16 -16 -15
-28 -28 -28 -28 -28 -28 -27 -27 -26 -26 -26 -26 -26 -25 -24 -24 -23 -24 -23 -23 -23 -23 -23 -23 -22 -20 -20 -20 -20 -20 -19 -19 -19 -19 -18 -18 -18 -18 -17 -17 -17 -17 -17 -17
-29 -29 -29 -29 -29 -29 -28 -27 -27 -26 -26 -26 -26 -27 -26 -25 -24 -24 -24 -24 -24 -23 -23 -23 -23 -22 -21 -21 -21 -19 -19 -19 -19 -19 -19 -19 -18 -18 -18 -18 -17 -18 -18 -18
-30 -29 -30 -30 -30 -29 -29 -28 -27 -27 -27 -27 -27 -27 -26 -26 -24 -25 -25 -25 -24 -24 -24 -23 -23 -23 -22 -21 -20 -20 -20 -20 -19 -19 -19 -19 -19 -19 -19 -19 -18 -18 -18 -18
-30 -30 -31 -31 -31 -30 -30 -29 -28 -28 -28 -28 -28 -28 -27 -26 -26 -26 -25 -25 -25 -25 -24 -23 -22 -23 -22 -22 -21 -22 -22 -21 -21 -20 -20 -20 -20 -18 -20 -19 -19 -19 -19 -19
-30 -30 -31 -31 -31 -30 -30 -30 -30 -29 -28 -28 -28 -28 -27 -26 -26 -25 -25 -26 -25 -24 -25 -25 -24 -23 -23 -23 -22 -22 -22 -22 -22 -21 -20 -21 -19 -19 -20 -20 -20 -20 -20 -19
-30 -31 -31 -31 -31 -31 -30 -30 -30 -30 -29 -29 -29 -28 -28 -27 -26 -26 -26 -26 -25 -26 -25 -25 -25 -24 -24 -23 -23 -23 -23 -23 -22 -22 -22 -21 -20 -19 -20 -21 -21 -20 -20 -19
-30 -30 -31 -31 -31 -31 -30 -30 -30 -30 -30 -30 -30 -29 -28 -27 -27 -26 -26 -26 -26 -26 -25 -25 -25 -24 -24 -24 -23 -23 -23 -23 -23 -23 -22 -22 -20 -21 -21 -21 -20 -20 -22 -21
-30 -30 -31 -31 -31 -31 -31 -31 -31 -31 -30 -31 -31 -29 -29 -28 -27 -27 -26 -26 -25 -25 -25 -25 -25 -24 -24 -24 -24 -23 -23 -23 -23 -23 -23 -23 -21 -21 -22 -22 -20 -21 -22 -22
-30 -30 -30 -31 -31 -31 -31 -31 -31 -32 -32 -32 -31 -30 -29 -28 -27 -27 -26 -26 -26 -25 -25 -25 -24 -25 -24 -24 -24 -24 -24 -24 -23 -23 -23 -23 -22 -23 -22 -22 -22 -22 -22 -22
-30 -30 -30 -30 -31 -31 -31 -31 -32 -32 -32 -32 -31 -29 -29 -28 -28 -27 -26 -25 -25 -25 -25 -25 -25 -25 -24 -24 -24 -24 -24 -24 -24 -23 -24 -23 -22 -23 -23 -23 -22 -22 -22 -23
-30 -30 -30 -30 -31 -31 -31 -32 -32 -33 -33 -32 -30 -28 -28 -28 -28 -27 -26 -26 -25 -25 -25 -25 -25 -25 -25 -24 -24 -23 -23 -23 -23 -23 -23 -24 -24 -23 -23 -23 -23 -23 -23 -23
-30 -30 -30 -31 -31 -31 -31 -32 -33 -33 -33 -31 -29 -29 -28 -27 -27 -27 -26 -26 -26 -26 -26 -26 -26 -25 -25 -25 -25 -24 -24 -24 -24 -24 -24 -24 -24 -24 -24 -24 -23 -23 -23 -23
-30 -30 -30 -31 -31 -31 -32 -33 -33 -33 -32 -30 -29 -28 -27 -27 -27 -27 -26 -26 -26 -26 -26 -26 -26 -26 -25 -25 -25 -24 -24 -24 -24 -24 -24 -24 -24 -24 -24 -24 -24 -24 -23 -23
-31 -31 -31 -31 -32 -32 -33 -33 -33 -32 -32 -30 -29 -27 -27 -28 -28 -27 -26 -26 -26 -26 -26 -26 -26 -26 -26 -26 -26 -25 -26 -25 -25 -25 -24 -25 -25 -24 -24 -24 -24 -24 -24 -24
-31 -31 -32 -33 -33 -33 -33 -33 -32 -32 -31 -29 -29 -28 -27 -28 -27 -27 -26 -26 -26 -26 -26 -26 -26 -27 -26 -26 -25 -26 -26 -26 -25 -26 -26 -26 -26 -25 -25 -25 -25 -24 -24 -24
-31 -32 -33 -33 -33 -33 -33 -33 -32 -32 -30 -29 -29 -28 -27 -28 -28 -27 -27 -27 -26 -26 -26 -27 -27 -26 -26 -25 -26 -26 -26 -26 -26 -26 -26 -26 -26 -26 -25 -25 -25 -25 -25 -25
-32 -32 -32 -33 -32 -33 -33 -33 -32 -32 -30 -30 -29 -28 -27 -28 -27 -28 -27 -27 -27 -27 -27 -27 -27 -26 -26 -26 -26 -26 -27 -26 -26 -26 -27 -26 -25 -25 -26 -26 -26 -25 -25 -25
-31 -32 -32 -32 -32 -33 -33 -33 -32 -32 -30 -30 -29 -29 -28 -28 -28 -28 -27 -27 -27 -27 -27 -27 -26 -26 -26 -26 -26 -26 -26 -26 -26 -26 -26 -27 -27 -27 -26 -26 -26 -26 -26 -25
-31 -31 -31 -31 -31 -32 -31 -31 -31 -31 -30 -30 -28 -29 -29 -28 -28 -28 -27 -27 -27 -27 -27 -27 -26 -26 -27 -27 -26 -26 -26 -26 -26 -26 -27 -27 -27 -27 -27 -27 -26 -26 -26 -26
-31 -30 -31 -31 -30 -30 -30 -30 -30 -30 -29 -29 -29 -29 -28 -28 -28 -27 -27 -27 -28 -27 -27 -27 -27 -27 -27 -26 -26 -26 -26 -26 -27 -27 -27 -27 -27 -27 -27 -27 -26 -26 -26 -26
-30 -30 -30 -30 -30 -30 -30 -29 -29 -28 -29 -29 -29 -29 -29 -29 -28 -28 -28 -28 -28 -27 -27 -27 -27 -27 -27 -27 -26 -26 -26 -27 -27 -27 -27 -27 -27 -26 -26 -26 -26 -26 -26 -26
-30 -30 -30 -30 -30 -30 -29 -29 -29 -29 -29 -29 -29 -29 -28 -29 -29 -28 -28 -28 -28 -27 -27 -27 -28 -28 -27 -27 -26 -26 -26 -26 -27 -26 -27 -27 -26 -26 -26 -26 -26 -26 -26 -26
-30 -30 -30 -30 -30 -30 -29 -29 -29 -29 -29 -29 -29 -29 -29 -29 -29 -29 -29 -28 -28 -28 -28 -28 -28 -27 -27 -27 -27 -27 -27 -26 -26 -26 -26 -26 -26 -26 -26 -26 -26 -26 -26 -26
-29 -29 -29 -29 -29 -29 -29 -29 -29 -29 -29 -29 -29 -29 -29 -29 -29 -29 -29 -29 -28 -28 -28 -29 -28 -27 -27 -27 -27 -27 -27 -27 -27 -26 -26 -26 -26 -26 -26 -26 -26 -26 -26 -26
-30 -30 -30 -30 -29 -29 -29 -29 -30 -30 -30 -29 -30 -30 -30 -30 -30 -29 -29 -29 -29 -29 -29 -29 -28 -27 -27 -27 -27 -27 -27 -26 -27 -26 -27 -26 -26 -26 -26 -26 -26 -26 -26 -26

GFSNW_500_temp_159.txt.gz
Temp
-27 -27 -27 -27 -27 -27 -26 -26 -25 -25 -25 -25 -24 -24 -24 -25 -23 -23 -23 -22 -22 -21 -21 -20 -21 -20 -20 -19 -19 -19 -19 -18 -17 -17 -17 -17 -16 -16 -16 -15 -15 -15 -15 -14
-27 -27 -28 -28 -28 -28 -28 -27 -26 -26 -26 -26 -25 -25 -25 -25 -24 -24 -24 -23 -23 -23 -23 -22 -21 -21 -21 -20 -20 -19 -20 -20 -18 -17 -17 -17 -16 -17 -16 -15 -16 -15 -15 -15
-28 -28 -28 -28 -28 -28 -28 -28 -27 -26 -27 -26 -26 -26 -25 -26 -26 -25 -25 -24 -24 -24 -23 -22 -23 -22 -22 -21 -21 -21 -20 -20 -20 -19 -18 -18 -17 -17 -17 -17 -17 -16 -16 -16
-29 -28 -29 -29 -29 -29 -29 -28 -27 -27 -27 -27 -27 -27 -26 -26 -26 -26 -26 -25 -24 -24 -24 -23 -24 -22 -22 -22 -22 -22 -20 -21 -21 -20 -19 -18 -18 -18 -18 -18 -17 -17 -16 -16
-29 -29 -29 -30 -31 -30 -30 -29 -28 -27 -28 -28 -28 -27 -27 -27 -27 -27 -26 -26 -26 -25 -25 -24 -23 -23 -23 -22 -23 -23 -22 -21 -21 -20 -19 -20 -19 -19 -19 -19 -18 -18 -18 -17
-29 -29 -29 -30 -30 -31 -30 -30 -29 -29 -28 -29 -29 -28 -27 -28 -28 -27 -27 -27 -26 -26 -25 -25 -25 -24 -23 -23 -24 -23 -23 -22 -22 -21 -20 -21 -20 -19 -20 -19 -19 -19 -19 -19
-30 -30 -30 -30 -30 -30 -31 -31 -31 -31 -30 -29 -29 -29 -29 -29 -28 -27 -28 -27 -27 -27 -27 -26 -25 -25 -24 -23 -23 -23 -22 -22 -22 -22 -22 -22 -20 -20 -20 -20 -19 -19 -19 -19
-30 -30 -30 -30 -30 -30 -30 -31 -30 -31 -31 -31 -31 -30 -30 -30 -29 -28 -28 -27 -27 -27 -27 -27 -26 -26 -25 -24 -23 -23 -23 -23 -23 -23 -23 -22 -21 -20 -20 -20 -20 -20 -20 -20
-30 -30 -30 -30 -30 -30 -30 -30 -31 -30 -31 -31 -32 -31 -31 -30 -30 -29 -28 -28 -28 -28 -27 -27 -27 -26 -25 -25 -24 -24 -24 -24 -23 -24 -24 -22 -21 -21 -22 -23 -20 -21 -21 -21
-30 -30 -30 -30 -30 -30 -30 -31 -31 -30 -30 -31 -31 -31 -31 -31 -30 -30 -29 -28 -28 -28 -28 -28 -27 -26 -26 -25 -24 -24 -24 -24 -24 -23 -24 -23 -22 -22 -22 -22 -20 -22 -22 -22
-30 -30 -30 -30 -31 -31 -30 -31 -31 -30 -31 -31 -31 -31 -31 -31 -31 -31 -30 -29 -28 -28 -28 -27 -27 -26 -26 -25 -25 -25 -25 -24 -24 -24 -24 -23 -22 -23 -23 -22 -22 -22 -22 -22
-30 -30 -31 -31 -31 -31 -31 -31 -31 -31 -30 -30 -31 -31 -31 -31 -31 -30 -30 -30 -29 -28 -28 -27 -26 -26 -26 -26 -25 -25 -25 -25 -25 -24 -24 -23 -23 -23 -23 -23 -22 -23 -23 -23
-30 -30 -31 -31 -31 -31 -31 -31 -31 -31 -31 -31 -30 -31 -31 -31 -31 -31 -30 -30 -29 -28 -28 -27 -26 -26 -26 -25 -25 -25 -25 -25 -25 -25 -24 -24 -24 -23 -23 -23 -23 -23 -24 -23
-31 -30 -30 -31 -31 -31 -31 -31 -31 -31 -31 -31 -30 -31 -31 -31 -31 -31 -31 -30 -29 -29 -28 -28 -26 -26 -26 -25 -25 -25 -26 -25 -25 -25 -25 -25 -24 -23 -24 -24 -24 -24 -24 -23
-31 -30 -30 -30 -30 -31 -31 -31 -31 -31 -31 -31 -31 -31 -31 -31 -32 -32 -31 -30 -29 -29 -28 -28 -26 -26 -26 -26 -26 -25 -26 -26 -25 -25 -25 -24 -24 -23 -24 -24 -24 -23 -24 -24
-31 -30 -30 -30 -31 -31 -31 -31 -30 -31 -31 -30 -31 -31 -31 -32 -32 -32 -30 -29 -29 -29 -28 -27 -26 -26 -27 -26 -26 -26 -25 -25 -25 -25 -25 -24 -24 -24 -24 -24 -24 -24 -24 -24
-31 -30 -30 -30 -31 -30 -30 -30 -30 -31 -31 -31 -31 -31 -31 -31 -30 -29 -29 -29 -28 -28 -27 -26 -26 -26 -26 -26 -26 -26 -26 -26 -26 -26 -25 -25 -25 -24 -25 -25 -25 -25 -24 -24
-30 -30 -30 -30 -30 -30 -30 -30 -30 -31 -31 -30 -31 -30 -29 -30 -29 -28 -28 -28 -28 -27 -27 -26 -26 -26 -26 -26 -26 -26 -26 -26 -26 -26 -25 -25 -26 -26 -25 -25 -25 -25 -25 -25
-30 -30 -30 -30 -30 -31 -31 -31 -31 -31 -31 -31 -30 -29 -29 -29 -29 -28 -28 -28 -28 -27 -26 -26 -26 -26 -26 -26 -26 -26 -26 -26 -26 -25 -25 -26 -26 -25 -25 -25 -25 -25 -25 -25
-31 -31 -31 -31 -31 -31 -31 -31 -31 -31 -31 -29 -29 -29 -28 -28 -28 -28 -28 -28 -27 -27 -26 -26 -26 -26 -26 -27 -27 -27 -26 -26 -26 -25 -26 -25 -25 -25 -25 -26 -26 -26 -26 -26
-31 -31 -31 -32 -32 -32 -32 -32 -31 -30 -30 -30 -29 -29 -29 -29 -29 -28 -28 -28 -27 -27 -26 -26 -26 -27 -27 -27 -26 -26 -26 -26 -26 -25 -25 -25 -25 -25 -26 -26 -26 -26 -26 -26
-32 -32 -32 -33 -33 -33 -33 -33 -31 -30 -29 -29 -29 -29 -29 -29 -28 -28 -28 -28 -27 -27 -27 -27 -27 -27 -27 -26 -26 -26 -26 -26 -26 -26 -25 -25 -26 -26 -26 -26 -26 -26 -27 -27
-31 -32 -32 -32 -32 -32 -32 -31 -31 -29 -29 -30 -29 -29 -28 -28 -28 -28 -28 -28 -27 -27 -27 -27 -27 -27 -27 -27 -27 -27 -27 -26 -26 -26 -26 -26 -26 -27 -27 -26 -26 -26 -27 -27
-31 -31 -31 -31 -31 -31 -30 -30 -30 -29 -29 -29 -29 -29 -29 -29 -28 -28 -28 -28 -27 -27 -27 -28 -27 -27 -28 -27 -27 -27 -27 -27 -27 -27 -26 -26 -26 -27 -26 -27 -26 -26 -26 -26
-30 -30 -30 -30 -30 -30 -29 -29 -29 -29 -29 -29 -29 -29 -29 -29 -29 -28 -28 -28 -28 -28 -28 -28 -28 -28 -28 -27 -27 -27 -27 -27 -27 -27 -26 -26 -26 -26 -26 -26 -26 -27 -26 -26
-30 -30 -30 -30 -30 -29 -29 -29 -29 -29 -29 -29 -29 -29 -29 -29 -29 -29 -28 -28 -28 -28 -28 -28 -28 -28 -28 -28 -27 -27 -28 -27 -27 -27 -27 -27 -27 -27 -27 -26 -27 -27 -27 -26
-30 -30 -29 -30 -29 -29 -29 -29 -29 -29 -29 -29 -29 -29 -29 -29 -29 -28 -28 -28 -28 -28 -28 -28 -28 -28 -28 -28 -28 -28 -28 -28 -28 -27 -27 -27 -27 -26 -27 -27 -27 -27 -27 -27

GFSNW_500_temp_162.txt.gz
Temp
-27 -27 -27 -26 -27 -27 -27 -27 -26 -25 -25 -26 -25 -25 -25 -24 -24 -24 -24 -23 -23 -22 -22 -21 -21 -21 -23 -22 -20 -20 -20 -19 -18 -18 -17 -17 -17 -16 -16 -16 -16 -16 -15 -15
-27 -27 -27 -27 -27 -27 -28 -28 -27 -26 -27 -27 -26 -26 -26 -26 -25 -25 -25 -24 -24 -24 -23 -23 -22 -22 -22 -22 -21 -21 -20 -20 -19 -19 -18 -17 -17 -17 -17 -17 -16 -16 -16 -15
-28 -28 -28 -28 -28 -28 -28 -28 -28 -27 -27 -27 -27 -27 -26 -26 -26 -26 -26 -25 -25 -24 -24 -24 -23 -23 -23 -22 -22 -22 -21 -21 -20 -19 -20 -19 -18 -18 -17 -17 -17 -16 -16 -16
-29 -28 -28 -28 -28 -29 -28 -28 -28 -27 -27 -27 -27 -27 -27 -26 -26 -26 -26 -26 -26 -25 -25 -25 -24 -23 -23 -22 -23 -22 -22 -21 -21 -20 -20 -19 -19 -18 -18 -17 -17 -17 -17 -17
-29 -29 -29 -29 -29 -30 -29 -29 -28 -28 -28 -28 -28 -28 -27 -27 -27 -27 -27 -26 -26 -26 -26 -25 -25 -24 -24 -22 -22 -22 -22 -22 -22 -21 -21 -20 -20 -19 -18 -18 -19 -18 -18 -18
-29 -29 -30 -30 -30 -30 -29 -29 -29 -29 -29 -28 -29 -28 -28 -28 -27 -27 -27 -27 -26 -27 -27 -26 -25 -24 -24 -23 -22 -23 -22 -23 -22 -21 -22 -22 -20 -19 -19 -20 -19 -20 -19 -19
-29 -29 -30 -30 -30 -30 -30 -30 -30 -30 -30 -29 -29 -30 -30 -29 -28 -27 -27 -27 -27 -27 -27 -27 -26 -25 -25 -25 -23 -22 -23 -23 -23 -22 -22 -22 -21 -20 -20 -20 -20 -20 -19 -20
-30 -30 -30 -30 -29 -29 -30 -30 -31 -31 -31 -31 -31 -31 -31 -30 -30 -28 -28 -28 -28 -27 -27 -27 -27 -26 -26 -25 -24 -24 -23 -23 -23 -23 -23 -23 -22 -21 -21 -21 -20 -21 -20 -21
-30 -30 -30 -30 -30 -30 -30 -29 -30 -31 -31 -31 -31 -31 -31 -31 -30 -29 -28 -28 -28 -28 -28 -27 -27 -27 -26 -26 -25 -25 -25 -24 -24 -23 -24 -23 -22 -22 -21 -22 -20 -20 -22 -22
-30 -30 -30 -30 -30 -30 -30 -30 -30 -30 -30 -31 -31 -31 -32 -31 -31 -30 -30 -29 -29 -28 -28 -28 -27 -27 -27 -26 -26 -25 -25 -25 -25 -24 -24 -23 -22 -23 -23 -22 -21 -22 -22 -22
-30 -30 -30 -30 -30 -30 -30 -30 -30 -31 -31 -31 -31 -31 -31 -31 -31 -31 -31 -30 -30 -29 -29 -28 -27 -27 -27 -26 -26 -26 -25 -25 -25 -25 -25 -23 -23 -23 -23 -23 -23 -22 -23 -23
-30 -30 -30 -30 -30 -30 -31 -30 -31 -31 -30 -31 -31 -31 -31 -31 -31 -31 -31 -31 -31 -30 -29 -29 -28 -27 -27 -27 -26 -26 -26 -25 -25 -25 -25 -24 -23 -23 -23 -23 -23 -23 -23 -23
-30 -30 -30 -30 -31 -30 -31 -31 -31 -30 -31 -31 -31 -31 -31 -31 -31 -31 -30 -31 -31 -30 -30 -30 -29 -27 -27 -27 -26 -26 -26 -25 -25 -25 -25 -24 -24 -24 -23 -23 -24 -23 -23 -23
-31 -30 -30 -30 -31 -31 -31 -31 -31 -31 -31 -30 -31 -31 -31 -31 -31 -31 -31 -31 -31 -31 -31 -30 -29 -28 -27 -26 -26 -26 -25 -25 -25 -25 -25 -25 -25 -24 -24 -24 -24 -24 -24 -24
-31 -31 -30 -30 -31 -31 -31 -31 -31 -31 -31 -30 -30 -30 -31 -31 -31 -31 -31 -32 -32 -32 -31 -30 -29 -28 -27 -26 -26 -25 -25 -25 -25 -25 -25 -25 -25 -24 -24 -24 -24 -23 -24 -24
-31 -31 -30 -30 -31 -31 -31 -31 -30 -30 -31 -30 -30 -30 -31 -31 -31 -31 -31 -32 -32 -32 -31 -29 -28 -28 -27 -27 -26 -26 -26 -25 -25 -25 -25 -24 -24 -24 -24 -24 -23 -24 -24 -24
-31 -31 -30 -30 -30 -31 -30 -30 -30 -30 -31 -31 -31 -30 -30 -31 -31 -31 -31 -32 -32 -32 -30 -29 -29 -28 -28 -27 -26 -26 -26 -25 -25 -25 -25 -25 -25 -24 -24 -24 -24 -24 -24 -24
-30 -30 -30 -30 -30 -31 -31 -30 -30 -30 -30 -30 -30 -30 -30 -30 -30 -30 -31 -30 -30 -29 -29 -29 -28 -28 -27 -26 -26 -26 -26 -26 -26 -26 -26 -26 -26 -26 -26 -25 -25 -25 -25 -25
-31 -30 -30 -30 -31 -30 -30 -30 -30 -30 -30 -30 -30 -30 -30 -30 -30 -29 -30 -28 -28 -28 -28 -28 -27 -27 -26 -26 -26 -26 -26 -26 -26 -26 -26 -26 -26 -25 -25 -25 -25 -25 -25 -25
-30 -30 -30 -30 -30 -31 -31 -31 -30 -30 -30 -30 -30 -30 -30 -29 -29 -29 -29 -28 -28 -27 -27 -27 -26 -26 -26 -26 -26 -26 -26 -26 -26 -26 -26 -26 -25 -25 -25 -25 -25 -25 -25 -25
-31 -30 -30 -30 -30 -31 -31 -30 -30 -30 -30 -30 -30 -29 -29 -29 -29 -29 -29 -28 -28 -27 -27 -27 -26 -26 -26 -26 -26 -27 -27 -26 -26 -26 -26 -26 -25 -25 -25 -25 -26 -26 -26 -26
-31 -31 -31 -31 -31 -32 -31 -31 -30 -30 -30 -29 -29 -29 -29 -29 -28 -28 -28 -28 -28 -28 -27 -27 -26 -26 -26 -27 -27 -27 -27 -27 -26 -26 -26 -25 -25 -26 -26 -26 -26 -26 -26 -26
-32 -32 -32 -33 -32 -33 -33 -32 -31 -30 -30 -29 -29 -29 -29 -28 -28 -27 -28 -28 -27 -27 -27 -27 -28 -27 -27 -27 -27 -27 -27 -27 -26 -26 -26 -26 -26 -26 -26 -27 -27 -27 -26 -26
-31 -31 -32 -32 -32 -32 -32 -32 -31 -30 -29 -29 -29 -29 -29 -28 -28 -28 -27 -28 -28 -28 -28 -27 -27 -27 -27 -27 -27 -27 -27 -27 -27 -27 -27 -27 -26 -26 -26 -27 -27 -27 -26 -26
-31 -31 -31 -31 -31 -31 -30 -30 -29 -29 -29 -29 -29 -29 -28 -28 -28 -28 -28 -28 -28 -28 -28 -27 -27 -27 -27 -27 -27 -27 -27 -27 -27 -27 -27 -26 -26 -27 -26 -26 -26 -27 -26 -27
-30 -30 -30 -30 -30 -29 -29 -29 -29 -29 -29 -29 -29 -29 -28 -28 -28 -28 -28 -28 -28 -28 -28 -28 -28 -28 -28 -28 -28 -28 -27 -27 -27 -27 -27 -27 -27 -27 -26 -27 -27 -26 -26 -26
-30 -30 -30 -30 -30 -30 -29 -29 -29 -29 -29 -29 -29 -29 -29 -29 -28 -28 -28 -28 -28 -28 -28 -28 -28 -28 -28 -28 -28 -28 -28 -28 -28 -28 -27 -27 -27 -27 -26 -26 -26 -26 -27 -26

GFSNW_500_temp_165.txt.gz
Temp
-27 -27 -27 -27 -27 -26 -26 -26 -27 -27 -26 -26 -26 -25 -25 -25 -25 -24 -24 -24 -23 -23 -22 -22 -22 -22 -21 -20 -19 -18 -17 -17 -17 -17 -17 -17 -17 -17 -16 -15 -16 -16 -16 -15
-27 -27 -27 -28 -27 -27 -27 -27 -27 -27 -27 -27 -26 -26 -26 -26 -26 -25 -25 -25 -24 -24 -24 -23 -22 -22 -22 -22 -21 -20 -19 -19 -18 -18 -18 -18 -17 -18 -18 -17 -16 -16 -15 -15
-28 -28 -27 -28 -28 -28 -28 -27 -27 -27 -27 -27 -27 -26 -27 -27 -27 -26 -26 -25 -25 -24 -24 -24 -24 -23 -23 -22 -22 -22 -21 -21 -20 -20 -20 -20 -19 -18 -19 -18 -17 -16 -16 -15
-28 -28 -28 -28 -28 -28 -28 -28 -27 -28 -28 -27 -27 -27 -28 -28 -28 -28 -27 -26 -26 -26 -25 -24 -24 -24 -24 -23 -23 -22 -22 -22 -22 -21 -20 -20 -20 -19 -19 -19 -18 -17 -17 -16
-28 -28 -28 -28 -29 -29 -29 -28 -28 -28 -28 -28 -28 -28 -28 -28 -28 -28 -27 -27 -26 -26 -26 -26 -25 -25 -24 -24 -24 -22 -23 -23 -22 -22 -21 -21 -21 -20 -20 -19 -19 -18 -18 -18
-28 -28 -28 -29 -29 -29 -29 -29 -29 -29 -29 -28 -28 -28 -28 -28 -28 -28 -27 -27 -26 -27 -27 -26 -25 -25 -25 -25 -25 -24 -23 -22 -23 -22 -22 -22 -22 -20 -20 -20 -20 -19 -19 -18
-28 -28 -28 -29 -29 -29 -29 -29 -30 -29 -29 -29 -29 -29 -29 -29 -29 -28 -28 -28 -27 -27 -27 -26 -26 -26 -25 -25 -25 -25 -24 -23 -23 -22 -23 -22 -22 -21 -21 -21 -20 -20 -19 -19
-29 -29 -29 -28 -29 -30 -30 -30 -30 -29 -30 -30 -30 -30 -29 -29 -29 -29 -29 -28 -28 -28 -27 -27 -27 -26 -26 -25 -25 -25 -24 -24 -24 -23 -23 -23 -22 -22 -22 -22 -21 -20 -20 -20
-30 -29 -29 -29 -28 -30 -30 -30 -30 -30 -30 -30 -30 -31 -30 -30 -31 -30 -30 -29 -28 -28 -28 -28 -27 -27 -27 -26 -25 -25 -25 -24 -25 -24 -24 -23 -22 -23 -23 -23 -21 -21 -21 -22
-31 -30 -30 -30 -29 -29 -30 -30 -30 -31 -31 -31 -30 -31 -31 -31 -31 -31 -32 -31 -30 -29 -28 -28 -28 -27 -27 -27 -26 -25 -25 -25 -25 -24 -25 -24 -22 -23 -23 -24 -21 -22 -22 -22
-30 -31 -30 -30 -30 -30 -30 -30 -30 -30 -30 -30 -30 -31 -31 -31 -31 -31 -31 -31 -30 -30 -29 -28 -28 -28 -27 -27 -26 -26 -25 -24 -25 -24 -24 -24 -23 -23 -23 -23 -23 -23 -23 -23
-30 -30 -31 -30 -30 -30 -30 -30 -30 -30 -30 -30 -30 -31 -31 -31 -31 -31 -31 -31 -31 -31 -30 -30 -29 -28 -28 -27 -27 -26 -25 -25 -24 -25 -24 -24 -24 -25 -24 -23 -23 -22 -23 -22
-30 -30 -30 -30 -30 -30 -30 -30 -30 -30 -30 -30 -30 -31 -31 -31 -31 -31 -31 -31 -31 -31 -31 -30 -30 -29 -28 -27 -27 -27 -26 -26 -25 -25 -25 -25 -25 -25 -24 -24 -24 -24 -23 -23
-30 -30 -30 -30 -30 -31 -30 -30 -30 -30 -30 -31 -31 -30 -31 -31 -31 -30 -30 -31 -30 -31 -31 -31 -30 -29 -28 -28 -27 -26 -26 -26 -25 -25 -25 -25 -25 -25 -25 -25 -24 -24 -24 -23
-30 -30 -30 -30 -30 -30 -30 -31 -31 -31 -31 -31 -31 -31 -31 -30 -30 -30 -31 -31 -31 -31 -31 -31 -30 -29 -29 -28 -27 -26 -26 -25 -25 -25 -25 -25 -25 -25 -25 -25 -24 -24 -24 -24
-30 -30 -30 -30 -30 -31 -30 -31 -31 -31 -31 -30 -30 -30 -30 -30 -30 -31 -31 -31 -31 -31 -31 -31 -30 -30 -30 -29 -27 -27 -26 -26 -26 -26 -26 -25 -25 -24 -24 -24 -24 -24 -24 -24
-30 -30 -30 -30 -30 -30 -30 -30 -31 -31 -31 -31 -30 -30 -30 -30 -31 -30 -30 -31 -31 -31 -31 -31 -31 -30 -30 -27 -26 -27 -26 -26 -25 -25 -25 -25 -25 -25 -25 -24 -24 -24 -23 -23
-30 -30 -30 -30 -30 -30 -30 -30 -30 -31 -31 -30 -30 -30 -30 -30 -30 -30 -30 -31 -31 -31 -31 -31 -30 -30 -28 -27 -26 -27 -26 -26 -25 -25 -26 -25 -25 -25 -25 -25 -25 -25 -25 -25
-30 -30 -30 -30 -30 -30 -30 -30 -30 -31 -31 -30 -30 -30 -30 -30 -30 -30 -30 -30 -30 -31 -30 -29 -29 -29 -27 -27 -27 -26 -26 -26 -26 -26 -26 -26 -26 -26 -26 -25 -25 -25 -25 -25
-30 -30 -30 -30 -30 -30 -31 -30 -30 -30 -30 -30 -30 -30 -30 -30 -30 -29 -29 -30 -29 -29 -29 -28 -28 -28 -27 -27 -27 -26 -26 -26 -26 -26 -26 -26 -26 -25 -25 -25 -25 -25 -25 -25
-30 -30 -30 -30 -30 -30 -30 -30 -30 -30 -30 -30 -30 -30 -30 -30 -29 -29 -29 -29 -29 -29 -28 -28 -27 -27 -27 -26 -26 -26 -26 -26 -26 -26 -26 -26 -26 -25 -25 -25 -25 -25 -25 -25
-30 -30 -30 -30 -30 -30 -30 -30 -30 -30 -30 -30 -30 -30 -29 -29 -29 -29 -29 -29 -28 -28 -28 -27 -27 -26 -26 -26 -26 -26 -26 -27 -26 -26 -26 -26 -25 -25 -25 -25 -25 -26 -26 -26
-31 -31 -31 -31 -31 -31 -31 -30 -30 -30 -30 -30 -30 -29 -29 -29 -29 -29 -28 -28 -28 -28 -27 -27 -27 -26 -26 -26 -26 -26 -27 -27 -27 -26 -26 -26 -26 -25 -26 -26 -26 -26 -26 -26
-31 -31 -31 -31 -31 -31 -31 -31 -30 -30 -30 -29 -29 -29 -29 -29 -29 -28 -28 -28 -28 -28 -28 -27 -27 -27 -27 -27 -27 -27 -27 -27 -27 -27 -27 -26 -26 -26 -27 -27 -26 -26 -27 -27
-31 -31 -31 -31 -31 -31 -31 -32 -31 -30 -29 -30 -29 -29 -29 -29 -28 -28 -28 -28 -27 -27 -28 -28 -28 -27 -27 -27 -27 -27 -27 -27 -27 -27 -27 -26 -27 -27 -27 -27 -26 -27 -27 -26
-31 -30 -31 -31 -31 -31 -31 -30 -30 -29 -29 -29 -29 -29 -29 -28 -28 -28 -28 -28 -28 -28 -28 -27 -27 -27 -27 -27 -27 -27 -27 -27 -27 -27 -27 -27 -27 -27 -27 -27 -27 -27 -27 -26
-30 -30 -30 -30 -30 -30 -29 -29 -29 -29 -29 -29 -29 -29 -29 -29 -28 -28 -28 -28 -28 -28 -28 -28 -28 -28 -28 -28 -28 -28 -28 -28 -28 -28 -27 -27 -27 -28 -27 -27 -27 -26 -27 -26

GFSNW_500_temp_171.txt.gz
Temp
-24 -24 -24 -24 -25 -25 -25 -25 -25 -24 -25 -25 -25 -24 -24 -24 -24 -25 -25 -25 -25 -24 -23 -23 -22 -21 -21 -21 -20 -20 -20 -19 -19 -18 -18 -18 -18 -18 -16 -16 -15 -15 -16 -17
-24 -24 -24 -25 -25 -25 -26 -25 -25 -25 -25 -25 -25 -26 -26 -26 -26 -26 -26 -25 -25 -24 -24 -23 -22 -22 -21 -21 -22 -21 -21 -21 -20 -19 -19 -18 -18 -17 -18 -17 -16 -15 -16 -16
-24 -25 -25 -25 -25 -26 -26 -26 -25 -25 -26 -26 -26 -27 -27 -27 -26 -26 -26 -26 -25 -25 -25 -24 -24 -23 -23 -23 -23 -22 -22 -21 -21 -20 -20 -19 -20 -18 -18 -18 -17 -17 -17 -17
-25 -26 -26 -26 -26 -26 -26 -26 -26 -27 -27 -26 -27 -27 -27 -27 -26 -26 -26 -26 -26 -26 -25 -25 -25 -24 -24 -24 -23 -23 -23 -22 -21 -21 -20 -21 -20 -20 -19 -18 -18 -18 -18 -19
-26 -26 -26 -27 -26 -27 -27 -27 -27 -28 -27 -27 -27 -27 -27 -27 -26 -26 -26 -27 -27 -26 -26 -26 -26 -26 -25 -25 -24 -24 -24 -23 -23 -22 -22 -22 -21 -20 -20 -19 -19 -18 -19 -19
-27 -27 -27 -27 -27 -27 -27 -28 -27 -27 -27 -27 -27 -27 -27 -27 -27 -27 -27 -27 -27 -27 -27 -27 -26 -26 -26 -26 -25 -25 -25 -24 -24 -23 -23 -23 -22 -22 -22 -21 -21 -21 -21 -19
-27 -27 -27 -27 -27 -27 -28 -28 -28 -28 -28 -28 -28 -28 -28 -27 -28 -27 -28 -28 -27 -27 -27 -27 -27 -27 -27 -26 -26 -26 -26 -24 -25 -24 -24 -24 -22 -21 -21 -20 -21 -22 -22 -21
-28 -28 -28 -28 -27 -27 -27 -28 -28 -28 -28 -28 -29 -28 -28 -28 -28 -28 -28 -28 -28 -28 -28 -28 -28 -28 -27 -26 -26 -26 -26 -25 -26 -26 -25 -24 -22 -22 -22 -22 -22 -22 -22 -22
-28 -28 -28 -28 -28 -28 -28 -28 -28 -29 -29 -29 -29 -29 -29 -29 -29 -28 -28 -28 -28 -29 -28 -28 -28 -28 -28 -27 -26 -26 -26 -26 -26 -26 -25 -24 -23 -23 -23 -23 -23 -22 -23 -22
-31 -30 -29 -29 -28 -28 -28 -28 -29 -29 -29 -30 -29 -29 -29 -29 -29 -29 -29 -29 -29 -29 -29 -29 -30 -30 -29 -28 -27 -27 -27 -25 -25 -25 -25 -24 -24 -25 -24 -23 -23 -23 -22 -22
-30 -31 -31 -30 -29 -29 -28 -29 -29 -30 -30 -30 -30 -30 -30 -29 -29 -29 -29 -30 -30 -30 -30 -30 -30 -30 -30 -30 -28 -27 -27 -27 -26 -25 -25 -24 -24 -24 -24 -24 -24 -23 -22 -22
-31 -31 -31 -31 -30 -29 -29 -29 -29 -30 -30 -30 -30 -30 -30 -30 -30 -30 -30 -30 -30 -30 -30 -30 -30 -30 -30 -30 -29 -28 -28 -27 -27 -26 -25 -25 -25 -24 -24 -23 -24 -24 -23 -23
-31 -31 -31 -31 -31 -30 -30 -30 -30 -30 -30 -30 -30 -30 -30 -30 -30 -29 -30 -30 -30 -30 -30 -30 -30 -30 -30 -30 -30 -29 -28 -27 -27 -26 -26 -25 -25 -25 -24 -24 -24 -24 -24 -23
-30 -31 -31 -31 -31 -31 -31 -30 -30 -30 -30 -30 -30 -30 -30 -30 -30 -30 -30 -30 -30 -30 -30 -30 -30 -30 -31 -30 -30 -30 -29 -28 -27 -26 -25 -25 -26 -25 -24 -24 -24 -24 -24 -24
-30 -30 -31 -31 -31 -31 -31 -31 -31 -31 -31 -30 -30 -30 -29 -30 -30 -30 -30 -30 -30 -30 -31 -31 -31 -30 -31 -30 -30 -29 -29 -28 -27 -26 -26 -25 -25 -25 -25 -25 -24 -24 -24 -24
-30 -30 -30 -30 -31 -31 -31 -31 -30 -30 -30 -30 -30 -30 -30 -30 -29 -30 -30 -30 -30 -31 -31 -30 -30 -30 -31 -30 -30 -29 -29 -29 -28 -26 -26 -26 -26 -25 -25 -25 -24 -25 -24 -24
-30 -31 -30 -30 -31 -31 -30 -30 -31 -31 -30 -30 -30 -30 -30 -30 -30 -30 -30 -30 -30 -30 -30 -30 -30 -30 -31 -31 -29 -29 -30 -29 -28 -27 -27 -26 -26 -26 -25 -25 -25 -25 -25 -25
-30 -30 -30 -31 -31 -31 -31 -31 -31 -31 -31 -30 -30 -30 -30 -30 -30 -30 -30 -30 -30 -30 -30 -30 -30 -30 -31 -30 -30 -30 -30 -29 -28 -27 -27 -26 -25 -25 -25 -25 -25 -25 -25 -25
-30 -30 -30 -30 -30 -30 -30 -31 -31 -31 -31 -30 -30 -30 -30 -30 -30 -30 -30 -30 -29 -29 -29 -29 -29 -30 -30 -29 -29 -28 -28 -28 -27 -27 -26 -26 -26 -25 -25 -26 -26 -25 -25 -25
-30 -30 -30 -30 -30 -30 -30 -31 -31 -30 -30 -30 -30 -30 -30 -30 -30 -30 -30 -29 -29 -28 -29 -28 -28 -28 -29 -29 -28 -28 -29 -28 -27 -27 -27 -26 -26 -26 -26 -26 -26 -25 -25 -25
-30 -30 -30 -30 -30 -30 -30 -31 -30 -30 -30 -30 -30 -30 -30 -30 -30 -30 -29 -29 -29 -28 -28 -28 -28 -27 -28 -28 -27 -27 -27 -27 -26 -26 -26 -26 -26 -26 -26 -26 -26 -25 -25 -25
-30 -30 -30 -30 -30 -30 -30 -30 -30 -30 -30 -30 -30 -30 -30 -30 -30 -30 -29 -29 -29 -29 -28 -28 -28 -27 -27 -27 -27 -27 -26 -26 -26 -26 -26 -26 -26 -26 -26 -26 -25 -25 -25 -25
-30 -30 -30 -30 -30 -30 -30 -30 -30 -30 -29 -29 -30 -30 -30 -30 -30 -29 -29 -29 -28 -28 -28 -28 -28 -27 -27 -27 -27 -27 -26 -26 -26 -26 -27 -27 -27 -26 -26 -26 -25 -25 -25 -26
-30 -30 -30 -30 -30 -30 -30 -30 -30 -30 -30 -30 -29 -30 -30 -30 -29 -29 -29 -29 -28 -28 -28 -28 -28 -27 -27 -27 -27 -27 -27 -27 -26 -27 -27 -27 -27 -26 -26 -26 -26 -26 -26 -26
-30 -30 -30 -30 -30 -30 -30 -30 -30 -29 -30 -30 -30 -30 -29 -29 -29 -29 -29 -28 -28 -28 -27 -27 -28 -28 -27 -27 -27 -27 -27 -27 -27 -28 -28 -27 -27 -27 -26 -26 -26 -26 -26 -26
-31 -31 -30 -31 -31 -30 -31 -30 -30 -30 -30 -30 -30 -30 -29 -29 -29 -29 -29 -28 -28 -28 -28 -28 -28 -28 -28 -28 -28 -28 -28 -28 -28 -27 -27 -27 -27 -27 -27 -26 -26 -26 -27 -27
-31 -31 -30 -30 -30 -31 -30 -31 -31 -31 -30 -30 -29 -29 -30 -29 -29 -29 -28 -28 -28 -28 -28 -28 -28 -28 -28 -28 -28 -27 -27 -27 -27 -27 -27 -27 -27 -27 -27 -27 -27 -27 -27 -28